Wind_Speed
8 7 6 6 5 4 4 4 6 7 9 10 11 12 11 10 9 7 5 3 2 1 0 0 1 1 2 2 2 2 2 2 2 2 2 3 3 3 3 2 3 3 3 3 3 3 3 4 4
8 7 6 5 4 4 4 6 8 10 12 12 11 11 9 8 7 6 4 3 2 2 1 1 1 1 1 2 2 2 1 1 1 1 1 2 2 2 2 1 2 2 2 2 2 2 2 3 3
8 7 6 5 5 4 3 5 8 13 13 14 14 11 8 8 7 6 4 3 3 2 2 2 2 2 2 2 2 1 1 1 1 1 1 1 1 1 1 1 1 1 1 1 1 2 2 2 2
8 7 6 6 7 6 4 5 10 13 14 15 16 13 9 7 6 6 5 3 3 3 3 3 3 4 3 3 2 2 1 0 1 1 1 1 1 1 1 1 0 0 0 1 1 1 1 1 2
9 7 7 8 9 7 5 4 9 13 16 17 16 13 10 8 6 5 5 4 3 3 4 4 4 5 4 4 3 3 2 1 1 1 1 1 1 1 1 1 1 1 1 1 1 1 1 1 1
9 8 7 8 8 6 5 5 10 14 17 18 16 14 11 8 6 6 6 5 4 4 5 5 5 5 5 5 4 4 3 2 1 1 1 1 1 1 0 0 1 1 1 2 2 2 1 1 1
10 8 7 8 7 5 5 6 10 13 16 18 17 16 11 7 6 6 6 5 5 5 5 5 6 6 7 6 5 4 4 3 2 2 2 1 1 1 1 1 1 1 2 2 2 2 1 1 1
10 9 8 8 6 5 6 6 9 13 17 18 17 15 13 9 6 6 7 6 5 5 5 5 6 7 8 8 6 5 5 4 3 3 3 2 2 2 2 2 2 2 2 2 2 2 2 1 1
10 9 9 8 7 6 6 7 9 14 17 17 16 15 13 12 8 6 6 6 5 6 6 6 6 7 7 8 8 7 6 5 4 3 3 3 2 2 2 2 2 2 3 2 2 2 1 1 1
11 10 10 9 9 6 6 7 12 16 16 16 15 15 14 12 9 7 7 6 5 6 5 6 6 7 7 8 9 8 8 7 5 4 4 3 3 2 2 2 2 2 3 2 2 1 1 1 1
12 11 12 11 10 8 7 9 14 17 16 16 14 13 14 12 8 7 6 6 6 6 6 6 6 7 7 9 9 9 9 8 7 6 5 5 4 4 3 3 3 3 2 2 1 1 1 0 1
14 13 14 13 11 11 11 12 15 17 16 16 16 14 14 11 8 7 7 7 6 5 5 6 7 7 8 9 10 10 9 10 9 7 6 6 5 5 4 4 3 2 2 1 1 1 1 0 0
16 15 15 14 14 13 14 15 16 16 16 16 16 15 14 12 10 9 7 7 5 6 6 6 7 7 8 9 10 10 10 10 10 8 7 6 6 5 5 4 3 2 2 1 1 0 1 1 1
17 17 17 16 16 15 15 15 16 16 16 16 15 14 13 13 11 9 7 7 6 7 7 7 7 7 8 9 10 10 11 11 11 9 8 7 7 6 5 4 3 3 2 1 1 0 1 1 1
19 18 17 16 15 15 16 16 15 15 15 15 14 14 13 13 12 10 8 7 7 7 7 7 7 7 8 9 10 11 11 12 12 11 9 9 8 6 6 5 4 4 3 2 1 1 1 1 1
19 17 15 14 14 14 15 15 14 15 14 14 14 14 14 13 13 11 9 8 7 8 8 7 8 8 9 10 10 11 11 12 13 12 11 9 8 7 6 6 5 4 4 3 2 2 1 1 1
18 16 14 13 13 13 14 13 13 14 14 13 14 14 13 13 12 10 9 8 8 8 8 7 8 9 9 10 11 11 11 12 13 13 12 10 9 8 7 6 6 5 5 4 3 2 2 1 1
17 17 15 14 11 11 13 12 12 14 15 14 14 14 13 12 11 10 9 9 9 8 8 8 8 10 10 10 11 11 11 12 13 13 13 11 10 9 8 7 7 6 5 5 4 3 3 2 1
20 19 17 14 12 12 12 13 14 15 16 15 14 14 14 13 11 11 10 10 10 9 8 8 9 10 11 11 12 12 12 12 14 14 13 12 10 10 9 9 8 7 6 6 5 4 3 2 2
22 20 17 15 14 13 14 14 15 16 16 17 15 14 14 13 12 11 11 10 10 10 9 9 10 10 10 11 12 13 12 13 13 14 14 13 12 11 10 9 9 8 8 7 6 5 4 3 2
22 20 18 16 15 16 16 16 17 18 17 17 16 14 13 12 11 11 11 10 10 10 9 9 10 10 10 11 12 12 12 13 14 15 15 15 13 12 11 10 9 9 9 8 7 5 4 4 3
21 19 19 18 17 18 19 19 19 19 18 16 15 14 13 12 10 10 10 10 10 10 10 10 10 11 11 12 12 12 12 13 14 15 15 15 15 14 12 11 11 10 9 8 7 7 6 5 4
20 19 20 20 20 21 22 22 20 20 18 16 14 13 13 12 11 10 10 10 10 10 10 10 11 12 13 12 13 13 13 14 14 15 15 15 15 14 13 12 12 11 10 9 8 7 7 6 5
21 21 23 23 24 24 23 25 23 20 18 16 14 12 11 11 10 10 10 10 10 10 10 11 10 12 12 13 13 13 14 14 14 15 16 16 16 15 14 13 12 12 11 10 9 8 7 6 5
24 25 27 26 26 24 23 25 23 20 19 17 15 13 12 10 10 10 9 8 9 10 10 10 10 11 12 13 13 13 14 15 15 16 18 18 17 17 16 15 13 13 12 12 10 9 8 7 6
25 26 27 26 24 22 23 24 23 21 20 18 16 14 12 10 10 9 8 9 9 9 9 10 11 12 12 13 14 15 14 14 15 17 18 18 19 18 18 16 15 13 13 13 12 10 9 8 7
24 25 25 25 24 23 23 21 20 18 16 16 15 13 11 10 10 9 8 8 9 8 8 9 11 12 12 13 14 15 16 16 16 17 18 19 20 20 20 18 16 14 14 14 13 11 10 9 9
24 25 26 26 25 24 22 19 17 16 16 16 14 12 10 10 10 10 8 8 9 9 10 10 10 11 12 13 13 14 15 16 17 18 19 19 20 20 20 19 17 15 14 14 13 13 12 11 10
25 26 26 26 26 25 22 18 16 17 16 16 16 15 13 12 11 10 9 8 8 10 10 11 11 12 12 13 14 15 15 16 17 18 20 20 20 20 21 19 18 16 15 15 14 14 13 13 12
25 25 26 27 26 26 24 20 18 17 16 15 16 15 15 14 12 11 10 9 9 10 11 12 12 12 12 13 14 15 16 16 17 18 19 19 20 20 20 20 19 17 16 16 15 15 14 14 14
Wind_Direction
336 334 332 340 337 329 320 339 5 357 345 340 338 343 346 353 353 347 345 354 338 343 26 146 148 143 122 116 104 87 72 62 65 64 70 79 77 71 70 74 79 82 82 79 75 77 82 84 83
326 326 325 331 329 318 329 348 346 344 337 336 333 338 342 348 346 340 332 339 326 301 253 225 201 193 174 145 122 101 81 66 60 57 51 61 65 62 58 54 63 72 75 74 69 75 82 82 80
317 316 316 320 306 303 320 335 331 333 330 332 331 334 341 340 339 331 315 317 309 280 257 240 227 213 205 188 164 134 111 61 51 52 38 30 27 31 35 35 59 66 67 63 59 66 71 73 74
308 307 305 302 290 289 297 328 333 328 327 329 327 328 328 330 326 320 309 303 299 276 250 238 232 222 216 206 198 191 203 300 350 22 29 1 349 357 7 20 29 10 2 14 19 36 49 52 52
299 297 295 288 285 284 293 336 328 322 323 324 325 324 322 327 326 318 308 299 294 277 255 241 234 229 225 216 210 209 216 251 287 303 331 320 320 340 23 10 329 307 304 296 302 335 11 28 37
291 290 286 280 272 279 294 314 311 317 319 320 320 315 317 329 328 317 308 302 291 275 258 250 238 232 227 224 221 219 224 235 261 269 288 301 291 271 276 305 303 304 310 306 292 291 307 344 351
283 280 271 268 266 271 279 287 292 307 312 316 317 315 318 324 326 318 310 303 295 273 261 249 241 237 233 228 227 226 227 237 248 256 263 269 266 261 262 271 285 302 316 316 307 298 298 294 276
276 272 260 256 254 263 274 276 284 301 306 312 312 311 316 317 320 313 304 301 291 280 276 255 244 237 234 230 232 230 231 239 243 251 254 254 259 267 275 263 282 302 317 319 311 301 297 283 269
271 262 253 255 255 260 258 267 281 299 304 308 308 308 315 318 318 315 300 295 287 282 275 263 249 238 233 234 236 237 233 233 237 244 246 249 264 267 268 269 279 303 314 317 318 310 295 276 276
262 252 249 253 258 260 263 276 286 291 296 300 300 307 310 313 310 307 296 287 283 281 278 268 251 238 237 237 236 236 233 229 232 237 240 248 264 261 264 269 273 300 319 318 321 328 307 284 289
254 243 244 246 254 264 267 274 280 285 291 296 294 301 310 312 302 305 291 274 274 272 277 262 248 237 242 241 234 233 232 229 230 236 245 250 259 261 263 272 278 290 307 316 329 335 326 310 304
247 238 240 243 250 260 264 267 274 282 289 294 294 300 308 307 305 296 286 273 264 266 264 257 252 240 240 241 235 231 229 226 229 235 244 247 253 258 258 267 275 274 283 300 320 329 3 12 338
246 239 239 244 249 256 259 260 267 274 282 287 292 297 301 303 302 294 282 267 262 262 259 254 254 246 241 238 234 228 225 226 231 237 236 239 249 253 253 258 261 256 265 282 288 329 41 57 66
245 241 241 244 246 250 254 256 261 269 274 279 287 296 296 298 304 297 281 275 267 262 260 260 259 251 246 233 228 226 228 232 234 232 228 232 239 245 245 244 245 246 249 268 303 117 91 88 94
244 244 244 246 244 247 254 255 259 267 272 276 282 292 296 298 305 301 279 280 276 263 255 261 252 247 244 232 228 228 233 231 228 226 229 231 235 240 235 234 238 234 227 220 200 140 131 107 109
246 246 246 243 241 246 251 254 257 266 274 281 287 293 296 300 303 297 280 279 272 261 261 256 247 244 237 233 229 233 233 227 223 223 223 227 228 229 226 225 228 221 213 209 195 181 179 160 171
243 242 239 235 235 242 248 249 254 264 273 281 289 293 294 298 298 291 278 270 268 264 266 257 242 238 238 237 231 235 227 222 220 217 219 223 226 225 221 221 222 217 210 205 199 196 198 207 210
238 234 232 230 227 235 247 251 249 259 270 280 288 290 293 295 292 285 279 271 267 265 258 252 248 240 240 236 230 231 226 223 219 217 218 221 225 224 220 219 218 216 212 207 202 203 215 227 225
232 231 228 225 226 231 242 252 253 258 266 276 284 288 292 295 291 283 279 275 266 261 254 256 248 247 242 236 226 224 225 219 217 220 218 220 223 218 215 214 214 212 211 204 200 202 208 214 203
229 228 226 225 227 231 239 247 252 259 273 278 282 287 292 295 297 283 281 279 269 259 255 258 252 246 242 231 224 223 223 221 218 218 218 221 221 217 215 212 212 210 208 203 198 196 198 199 197
228 227 224 224 226 232 239 244 249 255 266 271 278 287 293 292 295 289 287 281 267 257 257 258 251 247 238 228 223 224 222 224 222 220 220 221 219 213 210 209 209 207 204 201 199 198 202 198 192
225 224 223 222 226 227 237 243 249 255 260 269 274 279 285 284 288 288 285 279 268 258 251 252 249 243 233 228 221 220 222 221 221 221 218 215 213 211 209 209 207 205 202 203 203 204 203 200 198
220 221 219 222 229 233 237 244 250 255 254 258 266 272 278 284 285 284 286 278 268 260 252 251 246 236 230 227 222 222 222 220 222 223 217 210 206 208 209 209 208 207 207 208 210 210 205 205 207
214 215 219 224 231 235 238 244 247 250 254 254 260 268 277 278 282 286 286 282 273 263 256 247 238 227 227 224 221 222 223 224 223 220 212 208 208 208 209 208 208 209 211 213 214 209 209 209 210
213 216 220 226 231 236 239 244 248 247 248 252 258 266 265 267 274 278 282 280 271 263 255 247 237 226 226 225 221 222 223 223 222 219 213 213 212 211 211 209 209 209 212 211 211 210 211 210 213
215 221 225 229 233 235 238 245 247 246 246 248 254 258 260 263 273 281 282 273 266 255 246 240 236 231 230 227 224 224 225 223 219 215 214 215 213 211 209 209 210 210 210 210 212 216 219 221 226
214 222 227 232 233 235 240 244 246 242 240 241 247 259 265 268 272 277 281 270 259 250 245 243 239 235 232 229 227 227 224 222 220 218 216 214 212 210 208 209 209 210 211 212 215 221 228 233 237
216 220 224 228 230 235 240 242 243 238 237 241 245 250 260 264 266 271 278 274 260 251 243 242 242 239 234 233 231 229 225 222 221 218 214 214 211 211 209 208 209 211 214 217 220 226 232 239 243
215 218 223 228 231 234 239 239 245 248 247 250 251 250 252 258 266 273 268 269 267 256 248 245 243 240 237 235 233 229 228 226 222 216 212 212 212 212 209 210 213 215 218 221 225 231 237 243 247
220 222 224 227 231 235 241 242 244 249 248 252 251 251 255 257 262 267 265 267 266 262 252 247 244 242 238 235 232 229 227 226 221 214 211 213 211 210 210 212 216 219 221 224 229 234 240 245 250
Height
5897 5895 5894 5894 5894 5893 5891 5890 5887 5887 5888 5888 5888 5888 5887 5887 5886 5887 5884 5883 5882 5882 5882 5883 5883 5884 5884 5885 5886 5886 5887 5887 5888 5888 5888 5889 5888 5888 5888 5888 5888 5888 5887 5887 5887 5886 5886 5886 5886
5896 5895 5894 5893 5892 5891 5890 5889 5888 5887 5888 5888 5888 5888 5887 5886 5885 5884 5882 5882 5882 5882 5883 5883 5884 5884 5885 5886 5886 5887 5888 5888 5889 5889 5889 5889 5889 5889 5889 5889 5888 5888 5888 5888 5887 5887 5887 5887 5887
5895 5894 5894 5892 5891 5890 5889 5888 5887 5886 5886 5887 5888 5888 5887 5886 5885 5883 5882 5882 5882 5882 5882 5883 5883 5884 5885 5886 5886 5887 5888 5888 5889 5889 5889 5890 5890 5889 5889 5889 5889 5889 5888 5888 5888 5888 5888 5887 5887
5894 5893 5893 5892 5890 5889 5888 5886 5885 5885 5885 5886 5886 5886 5886 5885 5884 5883 5882 5881 5881 5881 5882 5882 5883 5884 5885 5886 5886 5887 5888 5888 5889 5889 5890 5890 5890 5890 5890 5889 5889 5889 5889 5888 5888 5888 5888 5888 5888
5892 5892 5891 5890 5888 5887 5885 5884 5885 5884 5884 5884 5884 5884 5884 5884 5883 5882 5881 5881 5880 5881 5881 5882 5883 5884 5885 5885 5886 5887 5888 5888 5889 5889 5890 5890 5890 5890 5890 5890 5889 5889 5889 5889 5888 5888 5888 5888 5888
5891 5890 5890 5888 5887 5886 5884 5882 5883 5883 5883 5883 5883 5883 5882 5882 5882 5881 5880 5879 5879 5880 5880 5881 5882 5883 5884 5885 5886 5886 5887 5888 5889 5889 5890 5890 5890 5890 5890 5890 5890 5889 5889 5889 5888 5888 5888 5888 5888
5889 5889 5888 5888 5886 5885 5884 5881 5882 5881 5882 5882 5881 5881 5881 5881 5881 5880 5879 5878 5878 5878 5879 5880 5881 5882 5883 5884 5885 5886 5887 5888 5888 5889 5889 5890 5890 5890 5890 5890 5890 5889 5889 5889 5888 5888 5888 5888 5888
5887 5887 5886 5885 5884 5884 5882 5880 5880 5880 5881 5880 5879 5879 5879 5880 5880 5879 5878 5877 5877 5878 5878 5879 5879 5881 5882 5883 5884 5885 5886 5887 5888 5889 5889 5889 5890 5890 5890 5890 5889 5889 5889 5888 5888 5888 5888 5888 5887
5884 5886 5884 5883 5882 5881 5880 5879 5879 5879 5879 5879 5878 5878 5877 5877 5877 5877 5876 5876 5877 5877 5877 5878 5878 5879 5881 5882 5883 5884 5885 5886 5887 5888 5889 5889 5889 5889 5889 5889 5889 5889 5889 5888 5888 5888 5888 5887 5887
5882 5882 5882 5881 5880 5879 5878 5878 5878 5878 5878 5878 5877 5876 5874 5874 5875 5875 5875 5874 5875 5875 5875 5876 5877 5878 5879 5880 5881 5883 5884 5885 5886 5887 5888 5889 5889 5889 5889 5889 5889 5888 5888 5888 5888 5887 5887 5887 5887
5879 5880 5879 5879 5878 5877 5876 5876 5876 5875 5876 5876 5875 5874 5872 5872 5872 5873 5873 5873 5873 5873 5874 5874 5875 5876 5877 5879 5880 5881 5882 5884 5885 5886 5887 5888 5888 5888 5888 5888 5888 5888 5888 5888 5887 5887 5887 5887 5887
5876 5876 5876 5875 5875 5875 5874 5874 5874 5873 5874 5874 5873 5872 5871 5871 5871 5871 5871 5871 5870 5871 5872 5872 5873 5874 5875 5876 5878 5879 5881 5882 5884 5885 5886 5887 5887 5887 5888 5888 5888 5888 5888 5888 5887 5887 5887 5886 5886
5872 5873 5872 5872 5872 5872 5872 5871 5871 5871 5872 5872 5871 5870 5870 5869 5869 5869 5869 5868 5867 5868 5869 5870 5871 5872 5873 5874 5876 5877 5879 5881 5882 5883 5885 5885 5886 5887 5887 5887 5887 5887 5887 5887 5887 5887 5887 5886 5886
5868 5868 5868 5868 5869 5869 5869 5869 5869 5869 5869 5870 5869 5869 5868 5866 5866 5866 5866 5866 5865 5866 5866 5867 5868 5869 5871 5872 5873 5875 5877 5878 5880 5882 5883 5884 5885 5886 5886 5886 5886 5887 5887 5887 5887 5887 5887 5886 5886
5863 5864 5865 5865 5866 5866 5867 5867 5867 5866 5866 5867 5867 5867 5866 5864 5863 5863 5863 5863 5862 5862 5863 5864 5866 5867 5868 5869 5871 5872 5874 5876 5878 5880 5881 5882 5883 5884 5885 5885 5886 5886 5886 5886 5886 5887 5887 5887 5887
5859 5860 5861 5862 5863 5863 5865 5864 5864 5863 5864 5864 5864 5864 5863 5862 5861 5861 5860 5860 5860 5860 5861 5862 5863 5864 5865 5867 5868 5870 5871 5873 5875 5877 5879 5880 5881 5883 5884 5884 5885 5886 5886 5886 5886 5886 5887 5887 5886
5855 5856 5858 5859 5860 5860 5860 5861 5861 5860 5861 5861 5861 5862 5861 5860 5859 5858 5857 5857 5857 5858 5858 5859 5860 5861 5863 5864 5866 5867 5869 5871 5873 5875 5877 5879 5880 5881 5882 5883 5884 5885 5885 5886 5886 5886 5886 5886 5886
5851 5852 5853 5855 5856 5856 5857 5857 5858 5857 5857 5858 5859 5859 5859 5858 5857 5856 5855 5855 5855 5855 5856 5857 5858 5859 5860 5862 5863 5865 5866 5868 5870 5872 5874 5876 5878 5879 5881 5882 5883 5884 5884 5885 5885 5886 5886 5886 5886
5845 5847 5849 5850 5851 5852 5852 5854 5854 5854 5854 5855 5855 5856 5856 5855 5854 5852 5852 5852 5852 5852 5853 5854 5855 5855 5857 5859 5861 5862 5864 5866 5868 5870 5872 5874 5876 5878 5879 5880 5882 5882 5883 5884 5884 5885 5885 5885 5885
5840 5842 5845 5847 5847 5848 5849 5850 5850 5851 5851 5851 5852 5852 5852 5851 5849 5848 5848 5848 5848 5849 5849 5850 5851 5852 5854 5856 5858 5860 5861 5863 5865 5867 5870 5872 5874 5876 5877 5879 5880 5881 5882 5883 5884 5884 5885 5885 5885
5835 5838 5841 5843 5843 5844 5845 5846 5847 5848 5848 5848 5848 5849 5849 5848 5847 5845 5845 5845 5845 5845 5846 5847 5848 5849 5851 5853 5855 5857 5858 5860 5862 5865 5868 5870 5872 5873 5875 5877 5878 5880 5881 5882 5883 5883 5884 5884 5885
5831 5835 5837 5838 5839 5840 5843 5843 5844 5845 5845 5845 5846 5846 5846 5845 5844 5843 5843 5843 5843 5843 5843 5844 5845 5847 5848 5850 5852 5854 5856 5858 5860 5862 5865 5867 5869 5872 5873 5875 5877 5878 5880 5881 5882 5883 5883 5883 5884
5827 5830 5832 5834 5835 5836 5838 5839 5841 5841 5842 5843 5843 5843 5842 5842 5842 5841 5840 5840 5840 5841 5841 5841 5842 5843 5845 5847 5850 5852 5853 5855 5857 5859 5862 5864 5867 5869 5872 5873 5875 5877 5878 5879 5881 5881 5882 5883 5883
5822 5825 5827 5828 5830 5832 5834 5835 5836 5838 5839 5840 5840 5840 5839 5839 5839 5839 5838 5838 5838 5838 5837 5838 5839 5840 5842 5844 5846 5848 5850 5852 5854 5857 5859 5862 5865 5867 5870 5871 5873 5875 5877 5878 5879 5880 5881 5881 5882
5816 5819 5822 5823 5825 5828 5830 5830 5832 5834 5835 5836 5836 5836 5836 5836 5836 5836 5836 5836 5836 5835 5835 5836 5837 5838 5840 5841 5843 5845 5847 5849 5852 5854 5856 5859 5862 5865 5867 5869 5871 5873 5874 5876 5877 5878 5879 5880 5880
5811 5814 5818 5820 5822 5824 5825 5825 5828 5829 5830 5831 5832 5832 5832 5833 5833 5833 5833 5833 5833 5833 5833 5834 5835 5836 5837 5839 5840 5842 5844 5846 5849 5851 5853 5856 5859 5861 5864 5866 5869 5871 5872 5874 5875 5876 5877 5878 5879
5806 5809 5813 5816 5818 5819 5820 5822 5823 5823 5825 5826 5828 5828 5828 5829 5830 5830 5830 5830 5830 5831 5831 5831 5832 5833 5835 5836 5837 5839 5841 5843 5845 5848 5850 5853 5855 5858 5861 5863 5866 5868 5870 5871 5873 5874 5875 5876 5877
5802 5805 5808 5810 5812 5814 5816 5818 5819 5819 5821 5823 5824 5825 5825 5827 5828 5828 5828 5827 5828 5828 5829 5829 5830 5831 5832 5833 5834 5836 5837 5840 5842 5844 5847 5850 5852 5855 5858 5861 5863 5865 5867 5869 5870 5872 5873 5874 5874
5797 5800 5802 5805 5808 5810 5812 5816 5816 5816 5817 5818 5820 5821 5823 5824 5825 5825 5825 5825 5824 5825 5826 5826 5827 5828 5829 5830 5831 5832 5834 5836 5838 5840 5843 5846 5849 5851 5855 5858 5860 5862 5864 5866 5867 5869 5870 5870 5871
5792 5795 5798 5801 5803 5806 5808 5813 5812 5812 5813 5814 5816 5818 5820 5821 5822 5822 5821 5821 5821 5821 5822 5823 5824 5825 5825 5826 5827 5829 5831 5833 5835 5837 5839 5842 5845 5848 5851 5854 5857 5859 5861 5862 5864 5865 5866 5867 5868